This is the latest recevied weather packets stored in our database for station/object EA1RCG-11. If no packets are shown the sender has not sent any weather packets the latest 10 day(s).
| Time | Temp. | Humidity | Pressure | Rain* | Wind** | Luminosity | Snow |
|---|---|---|---|---|---|---|---|
| 1778049284 | 13.33° C | 65% | 979.2 hPa | - | - | - | - |
| 1778047483 | 11.67° C | 67% | 979.3 hPa | - | - | - | - |
| 1778045683 | 11.67° C | 68% | 979.1 hPa | - | - | - | - |
| 1778043883 | 11.67° C | 69% | 979.1 hPa | - | - | - | - |
| 1778042083 | 11.67° C | 68% | 979.1 hPa | - | - | - | - |
| 1778040283 | 11.11° C | 69% | 979.1 hPa | - | - | - | - |
| 1778038483 | 11.67° C | 68% | 979.2 hPa | - | - | - | - |
| 1778036683 | 11.67° C | 69% | 979.4 hPa | - | - | - | - |
| 1778034883 | 12.22° C | 68% | 979.3 hPa | - | - | - | - |
| 1778033082 | 12.22° C | 68% | 979.4 hPa | - | - | - | - |
| 1778031282 | 12.22° C | 68% | 979.5 hPa | - | - | - | - |
| 1778029482 | 12.22° C | 68% | 979.8 hPa | - | - | - | - |
| 1778027682 | 12.22° C | 68% | 980 hPa | - | - | - | - |
| 1778025882 | 12.78° C | 68% | 980.2 hPa | - | - | - | - |
| 1778024082 | 12.78° C | 67% | 980.3 hPa | - | - | - | - |
| 1778022282 | 12.22° C | 68% | 980.4 hPa | - | - | - | - |
| 1778020482 | 11.67° C | 69% | 980.4 hPa | - | - | - | - |
| 1778018682 | 12.78° C | 68% | 980.4 hPa | - | - | - | - |
| 1778016882 | 12.78° C | 67% | 980.6 hPa | - | - | - | - |
| 1778015081 | 12.78° C | 67% | 980.6 hPa | - | - | - | - |
| 1778013281 | 12.78° C | 68% | 980.3 hPa | - | - | - | - |
| 1778011481 | 13.33° C | 67% | 980.1 hPa | - | - | - | - |
| 1778009681 | 13.89° C | 66% | 979.7 hPa | - | - | - | - |
| 1778007881 | 15° C | 65% | 979.7 hPa | - | - | - | - |
| 1778006081 | 15° C | 65% | 979.5 hPa | - | - | - | - |
* Rain since midnight (hover to see other rain measurements)
** Current wind speed in m/s (hover to see current wind gust speed)